Location: Capvern
(43.1036°N, 0.3160°E)
Time: 05:08:07
(UTC+00:00)

Cosmos 2227 Rocket - Pass Details

Date: 16 October 2021
Orbit: 839 x 845 km, 71.0° (Epoch: 02 December)

Event Time Altitude Azimuth Distance (km) Brightness Sun altitude
Rises 17:42:43 0° 335° (NNW) 3,413 5.6 -6.0°
Reaches altitude 10° 17:45:11 10° 335° (NNW) 2,474 4.9 -6.4°
Maximum altitude 17:50:52 90° 59° (ENE) 850 2.3 -7.5°
Drops below altitude 10° 17:56:32 10° 157° (SSE) 2,455 4.4 -8.5°
Sets 17:58:57 0° 157° (SSE) 3,385 5.1 -8.9°
